Time,TemperatureF,DewpointF,PressureIn,WindDirection,WindDirectionDegrees,WindSpeedMPH,WindSpeedGustMPH,Humidity,HourlyPrecipIn,Conditions,Clouds,dailyrainin,SoftwareType,DateUTC
2013-06-20 00:01:00,47.0,45.0,29.72,North,5,0.0,0.0,92,0.01,,,-99.99,,2013-06-20 06:01:00,
2013-06-20 00:11:00,47.0,45.0,29.72,North,5,0.0,0.0,92,0.01,,,-99.99,,2013-06-20 06:11:00,
2013-06-20 00:22:00,47.0,45.0,29.71,North,5,0.0,0.0,93,0.01,,,-99.99,,2013-06-20 06:22:00,
2013-06-20 00:33:00,47.0,45.0,29.71,North,5,0.0,0.0,93,0.01,,,-99.99,,2013-06-20 06:33:00,
2013-06-20 00:43:00,47.0,45.0,29.71,North,5,0.0,0.0,93,0.01,,,-99.99,,2013-06-20 06:43:00,
2013-06-20 00:53:00,47.0,45.0,29.70,North,5,0.0,0.0,93,0.01,,,-99.99,,2013-06-20 06:53:00,
2013-06-20 01:01:00,47.0,45.0,29.70,North,5,0.0,0.0,93,0.01,,,-99.99,,2013-06-20 07:01:00,
2013-06-20 01:12:00,47.0,45.0,29.70,North,5,0.0,0.0,93,0.01,,,-99.99,,2013-06-20 07:12:00,
2013-06-20 01:22:00,46.0,44.0,29.68,North,5,0.0,1.0,93,0.02,,,-99.99,,2013-06-20 07:22:00,
2013-06-20 01:33:00,46.0,44.0,29.68,North,5,0.0,1.0,93,0.02,,,-99.99,,2013-06-20 07:33:00,
2013-06-20 01:44:00,46.0,44.0,29.68,North,5,0.0,1.0,93,0.02,,,-99.99,,2013-06-20 07:44:00,
2013-06-20 01:52:00,46.0,44.0,29.66,North,5,0.0,3.0,93,0.03,,,-99.99,,2013-06-20 07:52:00,
2013-06-20 02:02:00,46.0,44.0,29.66,North,5,0.0,3.0,93,0.03,,,-99.99,,2013-06-20 08:02:00,
2013-06-20 02:11:00,46.0,44.0,29.66,North,5,0.0,3.0,93,0.03,,,-99.99,,2013-06-20 08:11:00,
2013-06-20 02:22:00,46.0,44.0,29.65,NNW,338,0.0,2.0,92,0.03,,,-99.99,,2013-06-20 08:22:00,
2013-06-20 02:33:00,46.0,44.0,29.65,NNW,338,0.0,2.0,92,0.03,,,-99.99,,2013-06-20 08:33:00,
2013-06-20 02:43:00,46.0,44.0,29.65,NNW,338,0.0,2.0,92,0.03,,,-99.99,,2013-06-20 08:43:00,
2013-06-20 02:53:00,46.0,44.0,29.65,East,90,0.0,4.0,93,0.03,,,-99.99,,2013-06-20 08:53:00,
2013-06-20 03:01:00,46.0,44.0,29.65,East,90,0.0,4.0,93,0.03,,,-99.99,,2013-06-20 09:01:00,
2013-06-20 03:11:00,46.0,44.0,29.65,East,90,0.0,4.0,93,0.03,,,-99.99,,2013-06-20 09:11:00,
2013-06-20 03:22:00,46.0,44.0,29.65,NE,46,0.0,3.0,93,0.06,,,-99.99,,2013-06-20 09:22:00,
2013-06-20 03:33:00,46.0,44.0,29.65,NE,46,0.0,3.0,93,0.06,,,-99.99,,2013-06-20 09:33:00,
2013-06-20 03:43:00,46.0,44.0,29.65,NE,46,0.0,3.0,93,0.06,,,-99.99,,2013-06-20 09:43:00,
2013-06-20 03:52:00,46.0,44.0,29.65,NW,323,1.0,5.0,91,0.07,,,-99.99,,2013-06-20 09:52:00,
2013-06-20 04:01:00,46.0,44.0,29.65,NW,323,1.0,5.0,91,0.07,,,-99.99,,2013-06-20 10:01:00,
2013-06-20 04:11:00,46.0,44.0,29.65,NW,323,1.0,5.0,91,0.07,,,-99.99,,2013-06-20 10:11:00,
2013-06-20 04:22:00,46.0,44.0,29.64,NNE,17,1.0,2.0,91,0.06,,,-99.99,,2013-06-20 10:22:00,
2013-06-20 04:33:00,46.0,44.0,29.64,NNE,17,1.0,2.0,91,0.06,,,-99.99,,2013-06-20 10:33:00,
2013-06-20 04:43:00,46.0,44.0,29.64,NNE,17,1.0,2.0,91,0.06,,,-99.99,,2013-06-20 10:43:00,
2013-06-20 04:53:00,45.0,42.0,29.63,NE,45,1.0,7.0,90,0.06,,,-99.99,,2013-06-20 10:53:00,
2013-06-20 05:01:00,45.0,42.0,29.63,NE,45,1.0,7.0,90,0.06,,,-99.99,,2013-06-20 11:01:00,
2013-06-20 05:11:00,45.0,42.0,29.63,NE,45,1.0,7.0,90,0.06,,,-99.99,,2013-06-20 11:11:00,
2013-06-20 05:22:00,45.0,42.0,29.64,NNW,330,0.0,3.0,89,0.09,,,-99.99,,2013-06-20 11:22:00,
2013-06-20 05:33:00,45.0,42.0,29.64,NNW,330,0.0,3.0,89,0.09,,,-99.99,,2013-06-20 11:33:00,
2013-06-20 05:43:00,45.0,42.0,29.64,NNW,330,0.0,3.0,89,0.09,,,-99.99,,2013-06-20 11:43:00,
2013-06-20 05:53:00,44.0,41.0,29.65,NNW,327,2.0,4.0,88,0.10,,,-99.99,,2013-06-20 11:53:00,
2013-06-20 06:02:00,44.0,41.0,29.65,NNW,327,2.0,4.0,88,0.10,,,-99.99,,2013-06-20 12:02:00,
2013-06-20 06:11:00,44.0,41.0,29.65,NNW,327,2.0,4.0,88,0.10,,,-99.99,,2013-06-20 12:11:00,
2013-06-20 06:22:00,44.0,40.0,29.67,NW,313,0.0,3.0,86,0.10,,,-99.99,,2013-06-20 12:22:00,
2013-06-20 06:33:00,44.0,40.0,29.67,NW,313,0.0,3.0,86,0.10,,,-99.99,,2013-06-20 12:33:00,
2013-06-20 06:43:00,44.0,40.0,29.67,NW,313,0.0,3.0,86,0.10,,,-99.99,,2013-06-20 12:43:00,
2013-06-20 06:53:00,43.0,40.0,29.67,North,360,1.0,7.0,89,0.10,,,-99.99,,2013-06-20 12:53:00,
2013-06-20 07:01:00,43.0,40.0,29.67,North,360,1.0,7.0,89,0.10,,,-99.99,,2013-06-20 13:01:00,
2013-06-20 07:11:00,43.0,40.0,29.67,North,360,1.0,7.0,89,0.10,,,-99.99,,2013-06-20 13:11:00,
2013-06-20 07:22:00,43.0,40.0,29.69,North,5,1.0,5.0,90,0.09,,,-99.99,,2013-06-20 13:22:00,
2013-06-20 07:33:00,43.0,40.0,29.69,North,5,1.0,5.0,90,0.09,,,-99.99,,2013-06-20 13:33:00,
2013-06-20 07:42:00,43.0,40.0,29.69,North,5,1.0,5.0,90,0.09,,,-99.99,,2013-06-20 13:42:00,
2013-06-20 07:53:00,43.0,40.0,29.70,North,350,1.0,5.0,88,0.08,,,-99.99,,2013-06-20 13:53:00,
2013-06-20 08:01:00,43.0,40.0,29.70,North,350,1.0,5.0,88,0.08,,,-99.99,,2013-06-20 14:01:00,
2013-06-20 08:11:00,43.0,40.0,29.70,North,350,1.0,5.0,88,0.08,,,-99.99,,2013-06-20 14:11:00,
2013-06-20 08:22:00,43.0,39.0,29.69,West,278,1.0,17.0,87,0.06,,,-99.99,,2013-06-20 14:22:00,
2013-06-20 08:32:00,43.0,39.0,29.69,West,278,1.0,17.0,87,0.06,,,-99.99,,2013-06-20 14:32:00,
2013-06-20 08:42:00,43.0,39.0,29.69,West,278,1.0,17.0,87,0.06,,,-99.99,,2013-06-20 14:42:00,
2013-06-20 08:53:00,43.0,39.0,29.70,NE,47,1.0,11.0,86,0.04,,,-99.99,,2013-06-20 14:53:00,
2013-06-20 09:01:00,43.0,39.0,29.70,NE,47,1.0,11.0,86,0.04,,,-99.99,,2013-06-20 15:01:00,
2013-06-20 09:11:00,43.0,39.0,29.70,NE,47,1.0,11.0,86,0.04,,,-99.99,,2013-06-20 15:11:00,
2013-06-20 09:22:00,43.0,39.0,29.70,WNW,300,1.0,4.0,86,0.03,,,-99.99,,2013-06-20 15:22:00,
2013-06-20 09:33:00,43.0,39.0,29.70,WNW,300,1.0,4.0,86,0.03,,,-99.99,,2013-06-20 15:33:00,
2013-06-20 09:43:00,43.0,39.0,29.70,WNW,300,1.0,4.0,86,0.03,,,-99.99,,2013-06-20 15:43:00,
2013-06-20 09:53:00,43.0,39.0,29.70,WNW,292,0.0,6.0,86,0.02,,,-99.99,,2013-06-20 15:53:00,
2013-06-20 10:01:00,43.0,39.0,29.70,WNW,292,0.0,6.0,86,0.02,,,-99.99,,2013-06-20 16:01:00,
2013-06-20 10:11:00,43.0,39.0,29.70,WNW,292,0.0,6.0,86,0.02,,,-99.99,,2013-06-20 16:11:00,
2013-06-20 10:22:00,43.0,39.0,29.72,North,355,0.0,12.0,86,0.03,,,-99.99,,2013-06-20 16:22:00,
2013-06-20 10:32:00,43.0,39.0,29.72,North,355,0.0,12.0,86,0.03,,,-99.99,,2013-06-20 16:32:00,
2013-06-20 10:43:00,43.0,39.0,29.72,North,355,0.0,12.0,86,0.03,,,-99.99,,2013-06-20 16:43:00,
2013-06-20 10:52:00,44.0,40.0,29.75,ENE,63,0.0,3.0,86,0.03,,,-99.99,,2013-06-20 16:52:00,
2013-06-20 11:01:00,44.0,40.0,29.75,ENE,63,0.0,3.0,86,0.03,,,-99.99,,2013-06-20 17:01:00,
2013-06-20 11:11:00,44.0,40.0,29.75,ENE,63,0.0,3.0,86,0.03,,,-99.99,,2013-06-20 17:11:00,
2013-06-20 11:21:00,44.0,39.0,29.77,North,351,3.0,5.0,83,0.02,,,-99.99,,2013-06-20 17:21:00,
2013-06-20 11:32:00,44.0,39.0,29.77,North,351,3.0,5.0,83,0.02,,,-99.99,,2013-06-20 17:32:00,
2013-06-20 11:43:00,44.0,39.0,29.77,North,351,3.0,5.0,83,0.02,,,-99.99,,2013-06-20 17:43:00,
2013-06-20 11:53:00,45.0,40.0,29.78,West,267,3.0,5.0,83,0.01,,,-99.99,,2013-06-20 17:53:00,
2013-06-20 12:01:00,45.0,40.0,29.78,West,267,3.0,5.0,83,0.01,,,-99.99,,2013-06-20 18:01:00,
2013-06-20 12:11:00,45.0,40.0,29.78,West,267,3.0,5.0,83,0.01,,,-99.99,,2013-06-20 18:11:00,
2013-06-20 12:22:00,45.0,40.0,29.79,East,80,0.0,5.0,83,0.02,,,-99.99,,2013-06-20 18:22:00,
2013-06-20 12:33:00,45.0,40.0,29.79,East,80,0.0,5.0,83,0.02,,,-99.99,,2013-06-20 18:33:00,
2013-06-20 12:43:00,45.0,40.0,29.79,East,80,0.0,5.0,83,0.02,,,-99.99,,2013-06-20 18:43:00,
2013-06-20 12:53:00,45.0,41.0,29.82,NNE,27,0.0,7.0,87,0.04,,,-99.99,,2013-06-20 18:53:00,
2013-06-20 13:01:00,45.0,41.0,29.82,NNE,27,0.0,7.0,87,0.04,,,-99.99,,2013-06-20 19:01:00,
2013-06-20 13:11:00,45.0,41.0,29.82,NNE,27,0.0,7.0,87,0.04,,,-99.99,,2013-06-20 19:11:00,
2013-06-20 13:22:00,45.0,41.0,29.83,North,5,0.0,5.0,85,0.02,,,-99.99,,2013-06-20 19:22:00,
2013-06-20 13:33:00,45.0,41.0,29.83,North,5,0.0,5.0,85,0.02,,,-99.99,,2013-06-20 19:33:00,
2013-06-20 13:43:00,45.0,41.0,29.83,North,5,0.0,5.0,85,0.02,,,-99.99,,2013-06-20 19:43:00,
2013-06-20 13:52:00,45.0,40.0,29.83,NNE,32,4.0,8.0,83,0.02,,,-99.99,,2013-06-20 19:52:00,
2013-06-20 14:01:00,45.0,40.0,29.83,NNE,32,4.0,8.0,83,0.02,,,-99.99,,2013-06-20 20:01:00,
2013-06-20 14:11:00,45.0,40.0,29.83,NNE,32,4.0,8.0,83,0.02,,,-99.99,,2013-06-20 20:11:00,
2013-06-20 14:22:00,45.0,40.0,29.85,ENE,60,4.0,9.0,81,0.03,,,-99.99,,2013-06-20 20:22:00,
2013-06-20 14:33:00,45.0,40.0,29.85,ENE,60,4.0,9.0,81,0.03,,,-99.99,,2013-06-20 20:33:00,
2013-06-20 14:43:00,45.0,40.0,29.85,ENE,60,4.0,9.0,81,0.03,,,-99.99,,2013-06-20 20:43:00,
2013-06-20 14:52:00,45.0,40.0,29.85,West,275,3.0,12.0,83,0.02,,,-99.99,,2013-06-20 20:52:00,
2013-06-20 15:01:00,45.0,40.0,29.85,West,275,3.0,12.0,83,0.02,,,-99.99,,2013-06-20 21:01:00,
2013-06-20 15:11:00,45.0,40.0,29.85,West,275,3.0,12.0,83,0.02,,,-99.99,,2013-06-20 21:11:00,
2013-06-20 16:12:00,46.0,41.0,29.89,WNW,296,1.0,5.0,81,0.02,,,-99.99,,2013-06-20 22:12:00,